星链-34667 (STARLINK-34667)

导读

STARLINK-34667是美国于2025年7月16日发射的Starlink星链系列卫星,星链是SpaceX打造的低轨卫星互联网星座,旨在为全球提供高速低延迟互联网服务。该卫星延续星链标准化设计,部署于近地轨道,进一步扩充星链星座规模,提升星座覆盖密度与服务能力,助力全球互联网覆盖布局完善。

基本信息
目录编号:
64815
目录名称:
STARLINK-34667
国际标识:
2025-150AB
轨道中心:
EARTH
卫星名称:
星链-34667
卫星全名:
星链-34667 (STARLINK-34667)
卫星状态:
在轨 (已飞行415 天)
发射日期:
2025-07-16 UTC
国别 :
美国 (US)
星等 :
--
轨道信息
数据来源 国际轨道数据
星历时间: 2026-09-04T12:28:51+0800
6小时前
查看轨道信息
半长轴: 6950.168km
偏心率: 0.0002661
轨道倾角: 70.002°
近地点辐角 267.515°
升交点赤经 44.406°
平近点角 92.570°
近地点: 570.181km
远地点: 573.881km
周期: 96.106分钟
每日圈数: 14.983381
详细信息
固有亮度:
5
最大亮度:
2.5
卫星平台:
Starlink V1.0
覆盖范围:
全球
运营商:
太空探索技术公司
运营商所在国:
美国
制造商(研发单位):
太空探索技术公司
制造商所在国:
美国
使用方式:
暂无
卫星简介
Starlink 计划是 SpaceX 推出的全球卫星互联网项目,通过发射低轨道卫星,为全球尤其是偏远地区提供高速、低延迟的互联网服务。自 2019 年起,Starlink 已部署数千颗卫星,旨在缩小全球数字鸿沟,推动互联网普及。该项目还为军事、航空等行业提供通信支持,带来广泛经济效益。
2D轨道图
3D轨道图
轨道高度分析图
轨道倾角分析图
轨道综合分析图
查看轨道综合分析图
交会数据列表
事件ID 空间交会对象 最接近时刻(TCA) 交会距离 交会风险概率(CRP) 交会风险指数(CRI) 操作
CDM_260904-142802-765506-481521
PSLV DEB (27655)
2026-09-04T
14:28:28+0000
1.825 km
极远距离
3.123938E-6 低风险 0.45
CDM_260830-191904-915406-481521
2026-08-30T
19:19:47+0000
2.965 km
极远距离
1.285106E-6 低风险 0.37